Hutchinson, KS

10:53 PM CDT on August 29, 2016 (GMT -0500)
Hutchinson Municipal

Weather History for KHUT - June, 2013

Change the Weather History Date:

Friday, June 14, 2013

  Actual Average Record
Temperature  
Mean Temperature 84 °F -  
Max Temperature 99 °F 83 °F 99 °F (2013)
Min Temperature 68 °F 58 °F 53 °F (2002)
Cooling Degree Days 18    
Growing Degree Days 34 (Base 50)    
Moisture  
Dew Point 63 °F    
Average Humidity 55    
Maximum Humidity 87    
Minimum Humidity 23    
Precipitation  
Precipitation 0.00 in - - ()
Sea Level Pressure  
Sea Level Pressure 29.86 in    
Wind  
Wind Speed 11 mph (South)    
Max Wind Speed 28 mph    
Max Gust Speed 36 mph    
Visibility 10 miles    
Events      
Averages and records for this station are not official NWS values.
T = Trace of Precipitation, MM = Missing Value Source: NWS Daily Summary

Daily Weather History Graph

Daily Weather History Graph

Search for Another Location

Airport or City:

Trip Planner

Search our weather history database for the weather conditions in past years. The results will help you decide how hot, cold, wet, or windy it might be!

Date:

Astronomy

Jun. 14, 2013 Rise Set
Actual Time 6:08 AM CDT 8:55 PM CDT
Civil Twilight 5:36 AM CDT 9:27 PM CDT
Nautical Twilight 4:57 AM CDT 10:06 PM CDT
Astronomical Twilight 4:12 AM CDT 10:51 PM CDT
Moon 11:39 AM CDT (6/14) 12:06 AM CDT (6/14)
Length of Visible Light 15h 50m
Length of Day
14h 47m
Waxing Crescent, 30% of the Moon is Illuminated
Jun 14
Waxing Crescent
Jun 16
First Quarter
Jun 23
Full
Jun 29
Last Quarter
Jul 8
New

Hourly Weather History & Observations

Time (CDT) Temp. Heat Index Dew Point Humidity Pressure Visibility Wind Dir Wind Speed Gust Speed Precip Events Conditions
12:52 AM 73.0 °F - 64.9 °F 76% 29.94 in 10.0 mi ESE 6.9 mph - N/A   Clear
1:52 AM 71.1 °F - 64.9 °F 81% 29.94 in 10.0 mi East 4.6 mph - N/A   Clear
2:52 AM 71.1 °F - 64.9 °F 81% 29.92 in 10.0 mi SE 3.5 mph - N/A   Clear
3:52 AM 70.0 °F - 64.9 °F 84% 29.90 in 10.0 mi SSE 5.8 mph - N/A   Clear
4:52 AM 69.1 °F - 64.9 °F 87% 29.89 in 10.0 mi SSE 6.9 mph - N/A   Clear
5:52 AM 68.0 °F - 64.0 °F 87% 29.90 in 10.0 mi SSE 5.8 mph - N/A   Clear
6:52 AM 69.1 °F - 64.9 °F 87% 29.90 in 10.0 mi SE 6.9 mph - N/A   Clear
7:52 AM 73.0 °F - 66.0 °F 79% 29.90 in 10.0 mi South 10.4 mph - N/A   Clear
8:52 AM 79.0 °F - 69.1 °F 72% 29.90 in 10.0 mi South 10.4 mph - N/A   Clear
9:52 AM 84.0 °F 87.8 °F 69.1 °F 61% 29.89 in 10.0 mi SSW 15.0 mph - N/A   Clear
10:52 AM 88.0 °F 92.1 °F 69.1 °F 53% 29.87 in 10.0 mi SSW 15.0 mph - N/A   Clear
11:52 AM 93.0 °F 97.4 °F 68.0 °F 44% 29.86 in 10.0 mi SSW 15.0 mph 23.0 mph N/A   Clear
12:52 PM 96.1 °F 98.3 °F 64.0 °F 35% 29.83 in 10.0 mi SSW 19.6 mph 25.3 mph N/A   Clear
1:52 PM 98.1 °F 98.6 °F 61.0 °F 29% 29.82 in 10.0 mi SSW 19.6 mph 28.8 mph N/A   Clear
2:52 PM 99.0 °F 99.5 °F 60.1 °F 28% 29.81 in 10.0 mi SSW 20.7 mph 28.8 mph N/A   Clear
3:52 PM 99.0 °F 98.1 °F 57.9 °F 25% 29.79 in 10.0 mi South 23.0 mph 32.2 mph N/A   Clear
4:52 PM 99.0 °F 97.3 °F 55.0 °F 23% 29.77 in 10.0 mi SSW 27.6 mph 33.4 mph N/A   Clear
5:52 PM 96.1 °F 94.5 °F 55.9 °F 26% 29.76 in 10.0 mi South 24.2 mph 35.7 mph N/A   Clear
6:52 PM 95.0 °F 93.7 °F 57.0 °F 28% 29.78 in 10.0 mi South 20.7 mph 27.6 mph N/A   Clear
7:52 PM 91.0 °F 90.0 °F 57.9 °F 33% 29.80 in 10.0 mi SSW 18.4 mph - N/A   Clear
8:52 PM 86.0 °F 85.4 °F 59.0 °F 40% 29.81 in 10.0 mi SSW 10.4 mph - N/A   Clear
9:52 PM 81.0 °F 81.6 °F 60.1 °F 49% 29.83 in 10.0 mi South 8.1 mph - N/A   Clear
10:52 PM 77.0 °F - 62.1 °F 60% 29.85 in 10.0 mi SSE 5.8 mph - N/A   Clear
11:52 PM 75.0 °F - 62.1 °F 64% 29.86 in 10.0 mi SSE 5.8 mph - N/A   Clear